Location: Newark
(37.6333°N, 5.2500°W)
Time: 02:29:44
(UTC+00:00)

OTV 5 (USA 277) - Visible Passes

Search period start: 21 October 2019 00:00
Search period end: 31 October 2019 00:00
Orbit: 310 x 324 km, 54.5° (Epoch: 17 October)

Date Brightness Start Highest point End Pass type
(mag) Time Alt. Az. Time Alt. Az. Time Alt. Az.
21 Oct ? 05:19:47 49° WNW 05:20:23 72° SW 05:23:05 10° SE visible
22 Oct ? 05:34:41 21° SW 05:34:48 21° SW 05:36:56 10° S visible
27 Oct ? 18:21:07 10° S 18:23:19 22° SE 18:24:03 20° ESE visible
28 Oct ? 18:35:03 10° SW 18:37:45 79° SE 18:38:40 37° NE visible
29 Oct ? 18:49:52 10° WSW 18:52:20 31° NW 18:53:10 25° N visible
30 Oct ? 19:05:34 10° WNW 19:07:05 14° NNW 19:07:33 13° NNW visible
